This is the latest recevied weather packets stored in our database for station/object W0WC. If no packets are shown the sender has not sent any weather packets the latest 10 day(s).
| Time | Temp. | Humidity | Pressure | Rain* | Wind** | Luminosity | Snow |
|---|---|---|---|---|---|---|---|
| 1778015520 | 10° C | 76% | 1010.2 hPa | 0 mm | - | 70 W/m² | - |
| 1778015216 | 10° C | 76% | 1010.5 hPa | 0 mm | - | 60 W/m² | - |
| 1778014913 | 10° C | 75% | 1010.3 hPa | 0 mm | - | 56 W/m² | - |
| 1778014308 | 10° C | 74% | 1010.3 hPa | 0 mm | - | 62 W/m² | - |
| 1778013400 | 10.56° C | 72% | 1010.2 hPa | 0 mm | - | 65 W/m² | - |
| 1778013096 | 10.56° C | 71% | 1010.1 hPa | 0 mm | - | 67 W/m² | - |
| 1778012792 | 10.56° C | 69% | 1010.2 hPa | 0 mm | - | 69 W/m² | - |
| 1778012488 | 10.56° C | 71% | 1010.2 hPa | 0 mm | - | 100 W/m² | - |
| 1778011883 | 10.56° C | 69% | 1010 hPa | 0 mm | - | 57 W/m² | - |
| 1778011581 | 10.56° C | 72% | 1010 hPa | 0 mm | - | 83 W/m² | - |
| 1778011278 | 10.56° C | 73% | 1010.2 hPa | 0 mm | - | 86 W/m² | - |
| 1778010974 | 11.11° C | 73% | 1010 hPa | 0 mm | - | 100 W/m² | - |
| 1778009761 | 11.11° C | 69% | 1010 hPa | 0 mm | - | 113 W/m² | - |
| 1778009458 | 11.11° C | 69% | 1010 hPa | 0 mm | - | 88 W/m² | - |
| 1778009157 | 11.11° C | 69% | 1010 hPa | 0 mm | - | 89 W/m² | - |
| 1778008854 | 11.11° C | 69% | 1009.5 hPa | 0 mm | - | 123 W/m² | - |
| 1778008552 | 11.11° C | 69% | 1009.8 hPa | 0 mm | - | 134 W/m² | - |
| 1778008249 | 11.11° C | 71% | 1009.6 hPa | 0 mm | - | 141 W/m² | - |
| 1778007943 | 11.11° C | 70% | 1009.7 hPa | 0 mm | - | 140 W/m² | - |
| 1778006124 | 11.11° C | 76% | 1009.8 hPa | 0 mm | - | 99 W/m² | - |
| 1778005517 | 11.11° C | 76% | 1009.7 hPa | 0 mm | - | 113 W/m² | - |
| 1778002787 | 11.67° C | 78% | 1009.2 hPa | 0 mm | - | 88 W/m² | - |
| 1778002483 | 11.67° C | 79% | 1009.4 hPa | 0 mm | - | 98 W/m² | - |
| 1778002180 | 11.67° C | 79% | 1009 hPa | 0 mm | - | 74 W/m² | - |
| 1778001879 | 11.67° C | 80% | 1008.9 hPa | 0 mm | - | 86 W/m² | - |
* Rain latest hour (hover to see other rain measurements)
** Current wind speed in m/s (hover to see current wind gust speed)